This demonstration page uses our WeatherBlox Daily Observations layout. Learn more.

Left ArrowRight Arrow

39.29038, -76.61219

Hourly Observations for February 17, 2019

Temp ( °F °C ) Dew Point ( °F °C ) Humidity (%) Winds ( mph kmh ) Pressure ( in mb ) Visibility ( mi km ) Precip ( " mm )
12:54 am 00:54 undefined 36 2.2 20 -6.7 52 52 undefined N/A 30.06 1018 N/A N/A
1:54 am 01:54 undefined 35 1.7 19 -7.2 52 52 undefined N/A 30.07 1018 N/A N/A
2:54 am 02:54 undefined 34 1.1 19 -7.2 54 54 undefined N/A 30.07 1018 N/A N/A
3:54 am 03:54 undefined 32 undefined 18 -7.8 56 56 undefined N/A 30.06 1018 N/A N/A
4:54 am 04:54 undefined 32 undefined 18 -7.8 56 56 undefined N/A 30.07 1018 N/A N/A
5:54 am 05:54 undefined 31 -0.6 18 -7.8 59 59 undefined N/A 30.11 1020 N/A N/A
6:54 am 06:54 undefined 31 -0.6 17 -8.3 56 56 undefined N/A 30.12 1020 N/A N/A
7:54 am 07:54 undefined 31 -0.6 18 -7.8 59 59 undefined N/A 30.15 1021 N/A N/A
8:54 am 08:54 undefined 32 undefined 18 -7.8 56 56 undefined N/A 30.14 1021 N/A N/A
9:54 am 09:54 undefined 33 0.6 18 -7.8 54 54 undefined N/A 30.14 1021 N/A N/A
10:54 am 10:54 undefined 35 1.7 20 -6.7 54 54 undefined N/A 30.17 1022 N/A N/A
11:54 am 11:54 undefined 34 1.1 20 -6.7 56 56 undefined N/A 30.14 1021 N/A N/A
12:54 pm 12:54 undefined 34 1.1 19 -7.2 54 54 undefined N/A 30.13 1020 N/A N/A
1:54 pm 13:54 undefined 35 1.7 20 -6.7 54 54 undefined N/A 30.08 1019 N/A N/A
2:54 pm 14:54 undefined 37 2.8 21 -6.1 52 52 undefined N/A 30.06 1018 N/A N/A
3:54 pm 15:54 undefined 37 2.8 22 -5.6 54 54 undefined N/A 30.03 1017 N/A N/A
4:54 pm 16:54 undefined 37 2.8 23 -5 57 57 undefined N/A 30.03 1017 N/A N/A
5:54 pm 17:54 undefined 36 2.2 26 -3.3 67 67 undefined N/A 30.01 1016 N/A 0.01 0.25
6:54 pm 18:54 undefined 37 2.8 27 -2.8 67 67 undefined N/A 29.97 1015 N/A N/A
7:54 pm 19:54 undefined 36 2.2 29 -1.7 76 76 undefined N/A 29.95 1014 N/A 0.02 0.51
8:54 pm 20:54 undefined 36 2.2 30 -1.1 79 79 undefined N/A 29.96 1014 N/A 0.02 0.51
9:54 pm 21:54 undefined 36 2.2 32 undefined 86 86 undefined N/A 29.96 1015 N/A 0.05 1.27
10:54 pm 22:54 undefined 36 2.2 32 undefined 86 86 undefined N/A 29.92 1013 N/A 0.07 1.78
11:54 pm 23:54 undefined 36 2.2 32 undefined 86 86 undefined N/A 29.89 1012 N/A 0.03 0.76

Powered by AerisWeather